Tracking 19846 objects as of 18-Sep-2019
HD Live streaming from Space Station
objects crossing your sky now

THORAD DELTA 1 DEB

Track THORAD DELTA 1 DEB now!
10-day predictions


NORAD ID: 8435
Int'l Code: 1974-089CL
Perigee: 1,464.7 km
Apogee: 1,728.3 km
Inclination: 101.5 °
Period: 118.0 minutes
Semi major axis: 7967 km
RCS: 0.0834 m2 (small)
Launch date: November 15, 1974
Source: United States (US)
Launch site: AIR FORCE WESTERN TEST RANGE (AFWTR)

Note: This is SATELLITE DEBRIS
aabbcc
Your satellite tracking list
Your tracking list is empty




NASA's NSSDC Master Catalog

Two Line Element Set (TLE):
1  8435U 74089CL  19260.99659331 -.00000038  00000-0  20248-4 0  9993
2  8435 101.5382 290.0838 0165409 355.9007  74.2788 12.20723852998819
Source of the keplerian elements: AFSPC